User: anonymous   Login
Location: Antichan
(42.9728°N, 0.6667°E)
Time: 09:42:52
(UTC+00:00)
Language:

ARGOS - Orbit

View from above orbital plane
View from above orbital plane
View from above satellite
View from above satellite

Ground track
Ground track

The orbit data is extracted from the following two-line orbital elements,

1 25634U 99008A   20299.94748392 -.00000020 +00000-0 +10152-4 0  9990
2 25634 098.4486 332.8366 0009101 258.3807 101.6348 14.19380714121999
Epoch (UTC): 25 October 2020 22:44:22
Eccentricity: 0.0009101
inclination: 98.4486°
perigee height: 821 km
apogee height: 834 km
right ascension of ascending node: 332.8366°
argument of perigee: 258.3807°
revolutions per day: 14.19380714
mean anomaly at epoch: 101.6348°
orbit number at epoch: 12199

The dashed part of the orbit path shows where the satellite is in the earth's shadow,  

DLR